DW2217 Weather Reports


time (UTC)temp
C
wind
direction
speed
KPH
gust
KPH
rain 1hr
cm
rain 24hr
cm
rain mn
cm
humidity
%
barometer
mb
20260901024245 14 147 0.0 3.2 0.00 0.00 0.00 92 1018.2
20260901023743 15 135 3.2 3.2 0.00 0.00 0.00 91 1018.1
20260901023239 15 139 0.0 0.0 0.00 0.00 0.00 91 1018.3
20260901022734 15 139 0.0 3.2 0.00 0.00 0.00 91 1018.1
20260901022229 15 139 0.0 3.2 0.00 0.00 0.00 90 1018.1
20260901021725 15 136 0.0 0.0 0.00 0.00 0.00 90 1018.2
20260901021220 15 139 0.0 0.0 0.00 0.00 0.00 90 1018.0
20260901020715 15 139 1.6 3.2 0.00 0.00 0.00 88 1018.2
20260901020211 16 139 0.0 3.2 0.00 0.00 0.00 87 1018.1
20260901015706 16 136 0.0 3.2 0.00 0.00 0.00 86 1018.2
20260901015201 16 136 0.0 0.0 0.00 0.00 0.00 86 1018.3
20260901014655 16 136 0.0 3.2 0.00 0.00 0.00 85 1018.3
20260901014151 16 136 0.0 0.0 0.00 0.00 0.00 85 1018.1
20260901013647 16 136 0.0 0.0 0.00 0.00 0.00 84 1018.1
20260901013142 16 139 0.0 0.0 0.00 0.00 0.00 83 1018.0
20260901012637 16 139 0.0 0.0 0.00 0.00 0.00 81 1018.2
20260901012132 17 147 0.0 0.0 0.00 0.00 0.00 81 1017.7
20260901011628 17 147 0.0 0.0 0.00 0.00 0.00 80 1018.0
20260901011127 17 147 0.0 0.0 0.00 0.00 0.00 79 1017.9
20260901010621 17 147 0.0 0.0 0.00 0.00 0.00 78 1017.7
20260901010121 17 147 0.0 0.0 0.00 0.00 0.00 78 1017.9
20260901005621 17 135 1.6 3.2 0.00 0.00 0.00 77 1017.9
20260901005116 17 147 0.0 0.0 0.00 0.00 0.00 76 1017.9
20260901004615 18 147 0.0 0.0 0.00 0.00 0.00 76 1018.0
20260901004110 18 147 0.0 3.2 0.00 0.00 0.00 74 1017.9
20260901003605 18 147 1.6 3.2 0.00 0.00 0.00 74 1017.9
20260901003103 18 136 0.0 3.2 0.00 0.00 0.00 73 1017.8
20260901002558 18 136 0.0 3.2 0.00 0.00 0.00 72 1017.8
20260901002053 18 136 0.0 3.2 0.00 0.00 0.00 72 1017.6
20260901001553 18 136 1.6 3.2 0.00 0.00 0.00 72 1017.8
20260901001048 18 136 0.0 3.2 0.00 0.00 0.00 71 1017.7
20260901000543 19 136 0.0 3.2 0.00 0.00 0.00 70 1017.7
20260901000039 19 136 0.0 3.2 0.00 0.00 0.00 70 1017.5
20260831235532 19 136 0.0 3.2 0.00 0.00 0.00 70 1017.5
20260831235028 19 136 0.0 0.0 0.00 0.00 0.00 70 1017.5
20260831234522 19 136 1.6 3.2 0.00 0.00 0.00 69 1017.5
20260831234018 20 136 1.6 3.2 0.00 0.00 0.00 68 1017.5
20260831233513 20 136 1.6 3.2 0.00 0.00 0.00 68 1017.5
20260831233009 20 136 0.0 3.2 0.00 0.00 0.00 67 1017.7
20260831232504 20 136 0.0 3.2 0.00 0.00 0.00 66 1017.6
20260831231959 20 136 0.0 3.2 0.00 0.00 0.00 66 1017.5
20260831231456 20 136 1.6 3.2 0.00 0.00 0.00 65 1017.8
20260831230951 20 136 0.0 3.2 0.00 0.00 0.00 64 1017.6
20260831230446 20 136 1.6 3.2 0.00 0.00 0.00 65 1017.7
20260831225941 20 136 0.0 3.2 0.00 0.00 0.00 65 1017.9
20260831225437 20 136 0.0 3.2 0.00 0.00 0.00 64 1017.8
20260831224932 21 136 1.6 3.2 0.00 0.00 0.00 64 1017.9
20260831224431 21 136 1.6 3.2 0.00 0.00 0.00 63 1017.7
20260831223926 21 136 0.0 3.2 0.00 0.00 0.00 62 1017.8
20260831223422 21 136 1.6 3.2 0.00 0.00 0.00 62 1017.8
20260831222919 21 136 3.2 3.2 0.00 0.00 0.00 61 1017.8
20260831222414 21 136 3.2 3.2 0.00 0.00 0.00 60 1017.8
20260831221909 21 139 3.2 3.2 0.00 0.00 0.00 60 1017.8
20260831221404 21 139 1.6 3.2 0.00 0.00 0.00 60 1017.8
20260831220859 21 149 0.0 3.2 0.00 0.00 0.00 58 1017.7
20260831220349 21 139 0.0 3.2 0.00 0.00 0.00 61 1017.8
20260831215844 21 139 0.0 3.2 0.00 0.00 0.00 60 1017.6
20260831215340 22 139 3.2 3.2 0.00 0.00 0.00 58 1017.6
20260831214836 22 149 1.6 3.2 0.00 0.00 0.00 57 1017.6
20260831214333 22 139 3.2 3.2 0.00 0.00 0.00 58 1017.7
20260831213828 22 149 3.2 3.2 0.00 0.00 0.00 57 1017.8
20260831213325 22 136 0.0 3.2 0.00 0.00 0.00 56 1017.7
20260831212820 22 136 1.6 4.8 0.00 0.00 0.00 58 1017.5
20260831212317 22 137 3.2 3.2 0.00 0.00 0.00 56 1017.5
20260831211815 22 138 1.6 3.2 0.00 0.00 0.00 53 1017.5
20260831211310 22 138 1.6 3.2 0.00 0.00 0.00 51 1017.8
20260831210809 22 138 3.2 3.2 0.00 0.00 0.00 50 1017.6
20260831210301 23 140 3.2 3.2 0.00 0.00 0.00 47 1017.7
20260831205800 23 140 0.0 0.0 0.00 0.00 0.00 44 1017.7
20260831205257 23 140 0.0 3.2 0.00 0.00 0.00 45 1017.7
20260831204756 23 140 0.0 0.0 0.00 0.00 0.00 41 1017.6
20260831204255 23 140 1.6 3.2 0.00 0.00 0.00 46 1017.6
20260831203755 23 140 0.0 0.0 0.00 0.00 0.00 46 1017.8
20260831203249 23 140 0.0 3.2 0.00 0.00 0.00 44 1017.7
20260831202748 23 140 0.0 3.2 0.00 0.00 0.00 45 1017.8
20260831202243 23 141 0.0 3.2 0.00 0.00 0.00 44 1017.9
20260831201742 23 141 0.0 3.2 0.00 0.00 0.00 44 1017.9
20260831201241 23 165 3.2 4.8 0.00 0.00 0.00 41 1017.7
20260831200737 23 127 0.0 3.2 0.00 0.00 0.00 44 1017.9
20260831200232 23 144 0.0 3.2 0.00 0.00 0.00 48 1017.9
20260831195727 23 171 4.8 4.8 0.00 0.00 0.00 42 1017.8
20260831195223 23 129 0.0 0.0 0.00 0.00 0.00 43 1017.8
20260831194717 23 89 0.0 3.2 0.00 0.00 0.00 46 1017.9
20260831194214 23 89 0.0 3.2 0.00 0.00 0.00 44 1018.0
20260831193707 23 92 1.6 3.2 0.00 0.00 0.00 43 1018.1
20260831193203 23 92 0.0 0.0 0.00 0.00 0.00 43 1018.1
20260831192658 23 92 1.6 3.2 0.00 0.00 0.00 45 1018.3
20260831192153 23 92 1.6 3.2 0.00 0.00 0.00 45 1018.4
20260831191648 23 112 3.2 3.2 0.00 0.00 0.00 44 1018.4
20260831191144 24 116 3.2 3.2 0.00 0.00 0.00 43 1018.5
20260831190639 24 109 1.6 3.2 0.00 0.00 0.00 44 1018.4
20260831190138 25 202 3.2 4.8 0.00 0.00 0.00 41 1018.3
20260831185634 24 194 4.8 4.8 0.00 0.00 0.00 43 1018.4
20260831185130 25 138 1.6 3.2 0.00 0.00 0.00 43 1018.3
20260831184629 25 131 0.0 3.2 0.00 0.00 0.00 45 1018.5
20260831184125 25 131 3.2 3.2 0.00 0.00 0.00 41 1018.6
20260831183624 24 130 0.0 3.2 0.00 0.00 0.00 41 1018.4
20260831183124 25 172 0.0 3.2 0.00 0.00 0.00 41 1018.5
20260831182624 25 57 1.6 4.8 0.00 0.00 0.00 41 1018.7
20260831182120 25 142 0.0 3.2 0.00 0.00 0.00 41 1018.7
20260831181619 25 142 0.0 4.8 0.00 0.00 0.00 42 1018.6
20260831181113 25 151 3.2 3.2 0.00 0.00 0.00 41 1018.7
20260831180609 25 143 0.0 3.2 0.00 0.00 0.00 41 1018.8
20260831180104 24 146 0.0 3.2 0.00 0.00 0.00 44 1018.9
20260831175559 23 321 3.2 4.8 0.00 0.00 0.00 43 1018.8
20260831175056 24 304 0.0 3.2 0.00 0.00 0.00 42 1018.8
20260831174550 24 127 0.0 3.2 0.00 0.00 0.00 43 1018.9
20260831174050 23 320 0.0 3.2 0.00 0.00 0.00 44 1018.9
20260831173548 24 305 4.8 4.8 0.00 0.00 0.00 43 1019.0
20260831173045 23 339 0.0 3.2 0.00 0.00 0.00 47 1018.9
20260831172539 23 337 0.0 3.2 0.00 0.00 0.00 44 1019.1
20260831172035 23 77 0.0 0.0 0.00 0.00 0.00 45 1019.1
20260831171530 22 288 3.2 4.8 0.00 0.00 0.00 47 1019.1
20260831171027 22 279 0.0 3.2 0.00 0.00 0.00 48 1019.3
20260831170523 22 277 3.2 3.2 0.00 0.00 0.00 49 1019.2
20260831170020 22 232 3.2 4.8 0.00 0.00 0.00 49 1019.2
20260831165520 22 46 1.6 4.8 0.00 0.00 0.00 52 1019.3
20260831165017 22 52 1.6 3.2 0.00 0.00 0.00 50 1019.4
20260831164513 22 79 0.0 3.2 0.00 0.00 0.00 53 1019.4
20260831164008 21 60 0.0 3.2 0.00 0.00 0.00 51 1019.4
20260831163508 21 323 3.2 4.8 0.00 0.00 0.00 52 1019.6
20260831163003 21 122 0.0 4.8 0.00 0.00 0.00 53 1019.7
20260831162457 21 122 0.0 3.2 0.00 0.00 0.00 54 1019.7
20260831161955 21 137 0.0 3.2 0.00 0.00 0.00 54 1019.7
20260831161452 21 58 0.0 3.2 0.00 0.00 0.00 55 1019.9
20260831160948 20 81 3.2 3.2 0.00 0.00 0.00 57 1019.9
20260831160447 20 54 0.0 3.2 0.00 0.00 0.00 55 1019.9
20260831155942 20 197 3.2 3.2 0.00 0.00 0.00 57 1019.8
20260831155437 20 116 0.0 3.2 0.00 0.00 0.00 57 1020.1
20260831154932 20 21 1.6 3.2 0.00 0.00 0.00 60 1019.9
20260831154429 20 56 1.6 3.2 0.00 0.00 0.00 61 1020.0
20260831153927 19 111 0.0 4.8 0.00 0.00 0.00 60 1020.0
20260831153423 19 90 0.0 3.2 0.00 0.00 0.00 59 1020.1
20260831152919 19 286 4.8 4.8 0.00 0.00 0.00 61 1020.2
20260831152415 19 350 3.2 3.2 0.00 0.00 0.00 62 1020.3
20260831151910 18 75 1.6 3.2 0.00 0.00 0.00 61 1020.2
20260831151408 18 17 3.2 4.8 0.00 0.00 0.00 61 1020.3
20260831150904 18 48 0.0 3.2 0.00 0.00 0.00 62 1020.6
20260831150359 18 229 3.2 4.8 0.00 0.00 0.00 62 1020.6
20260831145858 18 109 0.0 3.2 0.00 0.00 0.00 61 1020.6
20260831145355 18 1 3.2 4.8 0.00 0.00 0.00 64 1020.7
20260831144850 18 18 0.0 4.8 0.00 0.00 0.00 60 1020.5
20260831144346 18 282 6.4 8.0 0.00 0.00 0.00 64 1020.7
20260831143846 18 45 0.0 4.8 0.00 0.00 0.00 64 1020.7
20260831143341 17 254 3.2 4.8 0.00 0.00 0.00 65 1020.6
20260831142837 17 20 3.2 4.8 0.00 0.00 0.00 67 1020.6
20260831142332 17 104 0.0 4.8 0.00 0.00 0.00 66 1020.7
20260831141826 17 24 0.0 3.2 0.00 0.00 0.00 69 1020.6
20260831141321 17 231 3.2 8.0 0.00 0.00 0.00 68 1020.5
20260831140816 17 275 3.2 4.8 0.00 0.00 0.00 68 1020.7
20260831140310 16 53 0.0 3.2 0.00 0.00 0.00 72 1020.6
20260831135808 16 75 0.0 4.8 0.00 0.00 0.00 70 1020.6
20260831135306 16 341 4.8 4.8 0.00 0.00 0.00 72 1020.7
20260831134758 16 45 3.2 3.2 0.00 0.00 0.00 74 1020.7
20260831134250 16 12 0.0 4.8 0.00 0.00 0.00 71 1020.7
20260831133749 16 327 3.2 3.2 0.00 0.00 0.00 73 1020.7
20260831133248 16 292 4.8 4.8 0.00 0.00 0.00 74 1020.6
20260831132743 16 355 3.2 4.8 0.00 0.00 0.00 76 1020.7
20260831132239 16 342 3.2 3.2 0.00 0.00 0.00 77 1020.6
20260831131738 15 304 3.2 4.8 0.00 0.00 0.00 78 1020.5
20260831131236 15 311 3.2 4.8 0.00 0.00 0.00 80 1020.4
20260831130730 15 345 1.6 3.2 0.00 0.00 0.00 83 1020.4
20260831130225 15 4 3.2 3.2 0.00 0.00 0.00 85 1020.4
20260831125723 15 15 3.2 3.2 0.00 0.00 0.00 86 1020.5
20260831125220 15 0 3.2 4.8 0.00 0.00 0.00 87 1020.2
20260831124714 15 344 3.2 3.2 0.00 0.00 0.00 88 1020.4
20260831124211 14 307 3.2 4.8 0.00 0.00 0.00 89 1020.3
20260831123710 14 283 4.8 4.8 0.00 0.00 0.00 89 1020.2
20260831123209 14 340 3.2 4.8 0.00 0.00 0.00 89 1020.2
20260831122704 13 7 3.2 3.2 0.00 0.00 0.00 89 1020.2
20260831122200 13 10 3.2 3.2 0.00 0.00 0.00 89 1020.1
20260831121659 13 13 1.6 3.2 0.00 0.00 0.00 88 1020.4
20260831121156 13 5 3.2 4.8 0.00 0.00 0.00 88 1020.3
20260831120651 13 20 1.6 3.2 0.00 0.00 0.00 88 1020.1
20260831120145 13 25 3.2 3.2 0.00 0.00 0.00 89 1020.1
20260831115641 13 27 1.6 3.2 0.00 0.00 0.00 89 1020.3
20260831115137 13 26 1.6 3.2 0.00 0.00 0.00 90 1020.2
20260831114636 12 26 1.6 3.2 0.00 0.00 0.00 91 1020.1
20260831114131 12 19 3.2 3.2 0.00 0.00 0.00 91 1020.2
20260831113630 12 12 1.6 3.2 0.00 0.00 0.00 92 1020.2
20260831113126 12 349 3.2 3.2 0.00 0.00 0.00 92 1020.1
20260831112625 12 345 3.2 3.2 0.00 0.00 0.00 92 1020.1
20260831112119 12 15 3.2 3.2 0.00 0.00 0.00 93 1020.1
20260831111615 12 1 3.2 3.2 0.00 0.00 0.00 94 1020.1
20260831111106 11 9 3.2 3.2 0.00 0.00 0.00 95 1020.0
20260831110601 11 349 3.2 3.2 0.00 0.00 0.00 95 1020.0
20260831110056 11 9 3.2 3.2 0.00 0.00 0.00 96 1019.9
20260831105555 11 344 3.2 3.2 0.00 0.00 0.00 95 1020.0
20260831105050 11 3 3.2 3.2 0.00 0.00 0.00 95 1019.9
20260831104546 11 17 3.2 3.2 0.00 0.00 0.00 96 1019.8
20260831104042 11 17 3.2 3.2 0.00 0.00 0.00 96 1019.7
20260831103537 11 21 3.2 3.2 0.00 0.00 0.00 95 1019.7
20260831103033 11 26 0.0 3.2 0.00 0.00 0.00 95 1019.7
20260831102527 11 25 0.0 3.2 0.00 0.00 0.00 95 1019.6
20260831102022 11 21 3.2 3.2 0.00 0.00 0.00 96 1019.5
20260831101517 11 21 3.2 3.2 0.00 0.00 0.00 97 1019.6
20260831101013 11 14 3.2 3.2 0.00 0.00 0.00 97 1019.4
20260831100509 11 13 3.2 3.2 0.00 0.00 0.00 97 1019.6
20260831100005 11 10 3.2 3.2 0.00 0.00 0.00 96 1019.5
20260831095503 11 353 3.2 3.2 0.00 0.00 0.00 95 1019.5
20260831094958 12 33 1.6 3.2 0.00 0.00 0.00 93 1019.4
20260831094454 12 34 0.0 0.0 0.00 0.00 0.00 93 1019.3
20260831093949 12 34 0.0 3.2 0.00 0.00 0.00 94 1019.2
20260831093444 11 34 0.0 3.2 0.00 0.00 0.00 94 1019.3
20260831092941 12 26 0.0 0.0 0.00 0.00 0.00 93 1019.4
20260831092436 12 24 0.0 3.2 0.00 0.00 0.00 92 1019.3
20260831091931 12 21 0.0 3.2 0.00 0.00 0.00 92 1019.1
20260831091427 12 26 3.2 3.2 0.00 0.00 0.00 92 1019.2
20260831090916 12 6 3.2 3.2 0.00 0.00 0.00 93 1019.0
20260831090412 12 12 3.2 3.2 0.00 0.00 0.00 95 1019.1
20260831085908 12 3 3.2 3.2 0.00 0.00 0.00 94 1019.1
20260831085402 12 0 3.2 3.2 0.00 0.00 0.00 93 1019.2
20260831084856 12 18 3.2 3.2 0.00 0.00 0.00 94 1018.8
20260831084353 12 15 3.2 3.2 0.00 0.00 0.00 94 1018.9
20260831083849 12 9 3.2 3.2 0.00 0.00 0.00 93 1018.7
20260831083344 12 11 3.2 3.2 0.00 0.00 0.00 93 1018.7
20260831082843 12 20 3.2 3.2 0.00 0.00 0.00 94 1018.7
20260831082338 12 26 3.2 3.2 0.00 0.00 0.00 94 1018.5
20260831081833 12 22 1.6 3.2 0.00 0.00 0.00 94 1018.4
20260831081329 12 18 3.2 3.2 0.00 0.00 0.00 94 1018.5
20260831080825 12 20 3.2 3.2 0.00 0.00 0.00 94 1018.5
20260831080324 12 21 3.2 3.2 0.00 0.00 0.00 93 1018.5
20260831075820 12 22 1.6 3.2 0.00 0.00 0.00 92 1018.5
20260831075315 12 22 0.0 3.2 0.00 0.00 0.00 92 1018.6
20260831074810 12 22 0.0 3.2 0.00 0.00 0.00 92 1018.5
20260831074309 13 19 0.0 3.2 0.00 0.00 0.00 91 1018.5
20260831073805 13 345 3.2 4.8 0.00 0.00 0.00 91 1018.2
20260831073303 13 351 3.2 3.2 0.00 0.00 0.00 91 1018.1
20260831072759 13 325 3.2 4.8 0.00 0.00 0.00 91 1018.2
20260831072255 13 324 3.2 4.8 0.00 0.00 0.00 91 1018.3
20260831071750 13 337 3.2 4.8 0.00 0.00 0.00 92 1018.1
20260831071245 12 341 4.8 4.8 0.00 0.00 0.00 93 1018.3
20260831070744 12 340 3.2 4.8 0.00 0.00 0.00 93 1018.2
20260831070244 12 8 3.2 4.8 0.00 0.00 0.00 93 1018.2
20260831065742 13 21 3.2 3.2 0.00 0.00 0.00 93 1018.3
20260831065241 13 20 3.2 3.2 0.00 0.00 0.00 92 1018.4
20260831064737 13 20 3.2 3.2 0.00 0.00 0.00 92 1018.3
20260831064231 12 10 3.2 3.2 0.00 0.00 0.00 93 1018.1
20260831063727 12 354 3.2 3.2 0.00 0.00 0.00 93 1018.2
20260831063223 13 327 3.2 4.8 0.00 0.00 0.00 93 1018.2
20260831062722 12 343 3.2 4.8 0.00 0.00 0.00 95 1018.0
20260831062217 12 355 3.2 4.8 0.00 0.00 0.00 96 1018.4
20260831061715 12 318 3.2 4.8 0.00 0.00 0.00 95 1018.1
20260831061211 13 312 3.2 4.8 0.00 0.00 0.00 94 1018.1
20260831060707 12 351 3.2 4.8 0.00 0.00 0.00 96 1018.1
20260831060206 13 13 3.2 3.2 0.00 0.00 0.00 96 1018.0
20260831055701 13 359 3.2 3.2 0.00 0.00 0.00 95 1018.0
20260831055155 13 350 3.2 3.2 0.00 0.00 0.00 94 1017.9
20260831054650 13 1 3.2 3.2 0.00 0.00 0.00 95 1017.9
20260831054150 13 10 3.2 3.2 0.00 0.00 0.00 96 1017.8
20260831053644 13 11 3.2 3.2 0.00 0.00 0.00 95 1017.9
20260831053143 13 358 3.2 3.2 0.00 0.00 0.00 93 1017.9
20260831052643 13 18 3.2 3.2 0.00 0.00 0.00 94 1017.8
20260831052142 13 31 1.6 3.2 0.00 0.00 0.00 94 1017.6
20260831051640 13 29 0.0 0.0 0.00 0.00 0.00 94 1017.5
20260831051139 13 29 1.6 3.2 0.00 0.00 0.00 96 1017.7
20260831050634 13 60 0.0 3.2 0.00 0.00 0.00 96 1017.7
20260831050133 13 49 1.6 3.2 0.00 0.00 0.00 96 1017.4
20260831045632 13 36 0.0 0.0 0.00 0.00 0.00 95 1017.5
20260831045127 13 17 1.6 3.2 0.00 0.00 0.00 95 1017.3
20260831044623 13 15 1.6 3.2 0.00 0.00 0.00 94 1017.3
20260831044118 13 5 3.2 3.2 0.00 0.00 0.00 93 1017.5
20260831043614 13 20 3.2 3.2 0.00 0.00 0.00 94 1017.4
20260831043109 14 6 3.2 3.2 0.00 0.00 0.00 95 1017.4
20260831042608 14 327 3.2 3.2 0.00 0.00 0.00 94 1017.4
20260831042103 14 297 4.8 4.8 0.00 0.00 0.00 91 1017.3
20260831041558 14 16 3.2 3.2 0.00 0.00 0.00 92 1017.2
20260831041057 14 6 3.2 3.2 0.00 0.00 0.00 92 1017.5
20260831040551 14 358 3.2 4.8 0.00 0.00 0.00 93 1017.4
20260831040046 14 25 3.2 3.2 0.00 0.00 0.00 94 1017.3
20260831035543 14 23 3.2 3.2 0.00 0.10 0.10 95 1017.3
20260831035039 14 8 1.6 3.2 0.00 0.10 0.10 95 1017.2
20260831034538 14 341 3.2 4.8 0.00 0.10 0.10 94 1017.2
20260831034034 14 0 3.2 3.2 0.00 0.10 0.10 94 1017.1
20260831033530 14 9 3.2 3.2 0.00 0.10 0.10 94 1017.0
20260831033025 14 20 3.2 3.2 0.00 0.10 0.10 93 1017.1
20260831032524 14 348 4.8 4.8 0.00 0.10 0.10 94 1017.1
20260831032020 14 351 3.2 4.8 0.00 0.10 0.10 95 1017.0
20260831031519 15 354 4.8 4.8 0.00 0.10 0.10 96 1016.9
20260831031019 15 45 1.6 3.2 0.00 0.10 0.10 97 1017.1
20260831030518 15 46 0.0 0.0 0.00 0.10 0.10 96 1016.7
20260831030017 15 4 0.0 3.2 0.13 0.10 0.10 96 1016.9
20260831025510 15 14 0.0 0.0 0.13 0.10 0.10 96 1017.2
20260831025005 15 9 3.2 3.2 0.00 0.08 0.08 95 1017.1
20260831024500 15 2 3.2 3.2 0.00 0.08 0.08 95 1017.0